Погода в Деревне Черновский Лесоучасток

Россия / Удмуртская Республика     57°09′40″N   53°39′19″E
темп.,
°C
ветер,
м/с
пор.,
м/с
влажн.,
%
обл.,
%
осадки,
мм/ч
давл.,
гПа
погр.,
м
21 апреля, ср
ср2101:00+2юв22530 0.0 103111
04:00+1юв11550 0.0 103210
07:00+3юв25495 0.0 1032163
10:00+8ююв573597 0.0 1031868
13:00+11ююв683034 0.0 10301338
16:00+12ююв7931100 0.0 10281408
19:00+9ююв61241100 0.0 1027426
22:00+7ююв61348100 0.0 1027495
22 апреля, чт
чт2201:00+7ю71353100 0.1 1026925
04:00+5ю71470100 0.1 1027979
07:00+3ю71396100 1.2 1026813
10:00+3ю61296100 2.9 1027642
13:00+3ю51197100 0.3 1028618
16:00+4ю51097100 0.3 1028597
19:00+5ююв51191100 0.0 1028611
22:00+4ю41098100 0.0 1028572
23 апреля, пт
пт2301:00+3ю3797100 0.0 1028438
04:00+3ююв3792100 0.0 1028341
07:00+3ююв4797100 0.0 1028360
10:00+4ююв3696100 0.0 1029378
13:00+4ююв3495100 0.0 1029439
16:00+6юв238496 0.1 1028574
19:00+6вюв2383100 0.0 1028102
22:00+5в2487100 0.0 1027117
24 апреля, сб
сб2401:00+3всв3696100 0.0 1025130
04:00+3св4995100 0.0 1023186
07:00+5всв5992100 0.0 1021311
10:00+6вюв4591100 0.3 1019391
13:00+5в2497100 1.5 1018191
16:00+5в3599100 2.6 1017250
19:00+5в3698100 0.7 1015246
22:00+5в2498100 1.4 1014119
25 апреля, вс
вс2501:00+5в2397100 0.6 101284
04:00+5ю2399100 2.2 1011126
07:00+5юв2599100 0.6 1010232
10:00+8ююв588092 0.6 1009647
13:00+5ююз71193100 2.8 10091015
16:00+7юз8117124 2.9 10111332
19:00+6ююз37725 0.0 1012182
22:00+4ююв3482100 0.0 101368